EW7512 Weather Reports


Display with metric or nautical units.
time (UTC)temp
F
wind
direction
speed
MPH
gust
MPH
rain 1hr
in
rain 24hr
in
rain mn
in
humidity
%
barometer
mb
20260506190549 61 103 0.0 0.0 0.00 0.00 0.00 56 1017.8
20260506190053 61 103 0.0 0.0 0.00 0.00 0.00 57 1017.7
20260506185549 61 103 0.0 0.0 0.00 0.00 0.00 57 1017.7
20260506185049 61 103 0.0 0.0 0.00 0.00 0.00 58 1017.6
20260506184552 61 103 0.0 0.0 0.00 0.00 0.00 57 1017.6
20260506184048 61 103 0.0 0.0 0.00 0.00 0.00 57 1017.6
20260506183551 61 103 0.0 1.0 0.00 0.00 0.00 57 1017.6
20260506183050 61 103 0.0 1.0 0.00 0.00 0.00 56 1017.5
20260506182547 61 103 0.0 1.0 0.00 0.00 0.00 56 1017.4
20260506182048 62 103 0.0 2.0 0.00 0.00 0.00 55 1017.4
20260506181548 62 103 0.0 2.0 0.00 0.00 0.00 55 1017.4
20260506181048 62 103 0.0 2.0 0.00 0.00 0.00 55 1017.3
20260506180548 62 360 0.0 2.0 0.00 0.00 0.00 54 1017.3
20260506180048 62 360 0.0 1.0 0.00 0.00 0.00 54 1017.3
20260506175547 62 101 0.0 1.0 0.00 0.00 0.00 54 1017.2
20260506175047 63 103 0.0 2.0 0.00 0.00 0.00 53 1017.2
20260506174546 63 102 0.0 2.0 0.00 0.00 0.00 53 1017.2
20260506174046 63 98 0.0 1.0 0.00 0.00 0.00 53 1017.1
20260506173546 63 360 0.0 2.0 0.00 0.00 0.00 52 1017.1
20260506173121 63 360 0.0 2.0 0.00 0.00 0.00 52 1017.0
20260506172546 64 360 0.0 2.0 0.00 0.00 0.00 51 1017.0
20260506172049 64 360 0.0 2.0 0.00 0.00 0.00 51 1017.0
20260506171546 64 360 0.0 2.0 0.00 0.00 0.00 50 1017.0
20260506171046 64 360 0.0 2.0 0.00 0.00 0.00 50 1017.0
20260506170546 65 360 0.0 2.0 0.00 0.00 0.00 49 1016.9
20260506170046 65 360 0.0 2.0 0.00 0.00 0.00 48 1016.9
20260506165545 66 98 0.0 3.0 0.00 0.00 0.00 48 1017.0
20260506165045 66 102 0.0 3.0 0.00 0.00 0.00 47 1017.0
20260506164553 66 360 0.0 3.0 0.00 0.00 0.00 47 1016.9
20260506164045 67 360 0.0 3.0 0.00 0.00 0.00 46 1016.9
20260506163544 67 107 2.0 5.0 0.00 0.00 0.00 46 1016.9
20260506163044 67 64 1.0 5.0 0.00 0.00 0.00 45 1016.9
20260506162545 67 42 0.0 4.0 0.00 0.00 0.00 45 1016.9
20260506162044 67 42 1.0 4.0 0.00 0.00 0.00 45 1016.9
20260506161544 68 77 1.0 5.0 0.00 0.00 0.00 44 1016.8
20260506161044 68 59 1.0 5.0 0.00 0.00 0.00 45 1016.8
20260506160544 68 74 0.0 3.0 0.00 0.00 0.00 44 1016.8
20260506160046 69 74 1.0 4.0 0.00 0.00 0.00 44 1016.8
20260506155543 69 84 1.0 4.0 0.00 0.00 0.00 44 1016.9
20260506155043 69 84 2.0 4.0 0.00 0.00 0.00 44 1016.8
20260506154549 69 28 1.0 4.0 0.00 0.00 0.00 43 1016.9
20260506154043 70 92 1.0 4.0 0.00 0.00 0.00 43 1016.8
20260506153542 70 57 2.0 4.0 0.00 0.00 0.00 44 1016.9
20260506153047 70 86 2.0 4.0 0.00 0.00 0.00 43 1016.9
20260506152542 71 82 1.0 3.0 0.00 0.00 0.00 44 1017.0
20260506152043 71 82 1.0 3.0 0.00 0.00 0.00 44 1016.9
20260506151542 71 93 0.0 4.0 0.00 0.00 0.00 44 1016.9
20260506151042 72 72 2.0 5.0 0.00 0.00 0.00 43 1016.9
20260506150546 72 168 2.0 7.0 0.00 0.00 0.00 43 1016.9
20260506150044 72 92 2.0 7.0 0.00 0.00 0.00 43 1016.9
20260506145542 72 53 0.0 7.0 0.00 0.00 0.00 43 1016.9
20260506145041 72 248 2.0 7.0 0.00 0.00 0.00 44 1017.0
20260506144543 71 91 1.0 3.0 0.00 0.00 0.00 50 1017.0
20260506144041 71 100 1.0 3.0 0.00 0.00 0.00 53 1017.0
20260506143541 71 102 0.0 4.0 0.00 0.00 0.00 56 1017.0
20260506143043 70 101 1.0 4.0 0.00 0.00 0.00 59 1017.1
20260506142541 71 88 1.0 4.0 0.00 0.00 0.00 57 1017.1
20260506142040 71 136 1.0 4.0 0.00 0.00 0.00 55 1017.0
20260506141540 71 136 0.0 6.0 0.00 0.00 0.00 53 1017.1
20260506141040 71 89 1.0 6.0 0.00 0.00 0.00 53 1017.0
20260506140542 72 95 1.0 7.0 0.00 0.00 0.00 52 1017.0
20260506140041 72 143 1.0 7.0 0.00 0.00 0.00 52 1017.1
20260506135539 72 109 0.0 3.0 0.00 0.00 0.00 54 1017.1
20260506135039 71 84 0.0 3.0 0.00 0.00 0.00 54 1017.1
20260506134539 71 146 1.0 4.0 0.00 0.00 0.00 54 1017.1
20260506134040 71 123 1.0 5.0 0.00 0.00 0.00 55 1017.1
20260506133539 71 152 3.0 5.0 0.00 0.00 0.00 55 1017.1
20260506133039 71 115 2.0 4.0 0.00 0.00 0.00 54 1017.2
20260506132541 71 86 2.0 6.0 0.00 0.00 0.00 54 1017.1
20260506132038 71 113 0.0 6.0 0.00 0.00 0.00 55 1017.1
20260506131548 71 134 2.0 4.0 0.00 0.00 0.00 54 1017.1
20260506131038 72 96 0.0 5.0 0.00 0.00 0.00 53 1017.1
20260506130538 71 110 0.0 5.0 0.00 0.00 0.00 53 1017.2
20260506130053 72 136 2.0 8.0 0.00 0.00 0.00 53 1017.2
20260506125537 71 114 3.0 8.0 0.00 0.00 0.00 52 1017.1
20260506125038 72 89 1.0 8.0 0.00 0.00 0.00 52 1017.3
20260506124536 72 94 3.0 8.0 0.00 0.00 0.00 53 1017.2
20260506124036 72 150 2.0 8.0 0.00 0.00 0.00 51 1017.2
20260506123536 72 159 2.0 9.0 0.00 0.00 0.00 53 1017.2
20260506123037 72 69 3.0 8.0 0.00 0.00 0.00 50 1017.3
20260506122538 73 109 1.0 6.0 0.00 0.00 0.00 51 1017.4
20260506122035 72 113 2.0 7.0 0.00 0.00 0.00 50 1017.4
20260506121535 72 78 2.0 7.0 0.00 0.00 0.00 50 1017.4
20260506121035 73 75 3.0 7.0 0.00 0.00 0.00 49 1017.4
20260506120535 72 134 2.0 7.0 0.00 0.00 0.00 49 1017.4
20260506120035 73 130 3.0 7.0 0.00 0.00 0.00 48 1017.5
20260506115535 73 116 2.0 8.0 0.00 0.00 0.00 49 1017.5
20260506115033 73 102 2.0 9.0 0.00 0.00 0.00 51 1017.5
20260506114535 73 101 2.0 9.0 0.00 0.00 0.00 50 1017.4
20260506114033 73 101 3.0 8.0 0.00 0.00 0.00 51 1017.5
20260506113533 72 143 4.0 7.0 0.00 0.00 0.00 51 1017.5
20260506113040 72 138 2.0 8.0 0.00 0.00 0.00 51 1017.5
20260506112533 73 126 3.0 9.0 0.00 0.00 0.00 52 1017.5
20260506112035 73 116 5.0 9.0 0.00 0.00 0.00 53 1017.5
20260506111533 72 142 3.0 7.0 0.00 0.00 0.00 51 1017.6
20260506111032 73 101 3.0 7.0 0.00 0.00 0.00 52 1017.6
20260506110532 73 134 2.0 5.0 0.00 0.00 0.00 49 1017.6
20260506110035 73 88 2.0 7.0 0.00 0.00 0.00 51 1017.6
20260506105532 72 80 2.0 7.0 0.00 0.00 0.00 51 1017.6
20260506105031 72 126 2.0 8.0 0.00 0.00 0.00 49 1017.6
20260506104531 73 126 3.0 8.0 0.00 0.00 0.00 51 1017.6
20260506104030 73 121 2.0 7.0 0.00 0.00 0.00 48 1017.6
20260506103530 74 76 1.0 6.0 0.00 0.00 0.00 50 1017.7
20260506103038 73 134 2.0 7.0 0.00 0.00 0.00 49 1017.7
20260506102530 73 128 3.0 9.0 0.00 0.00 0.00 49 1017.7
20260506102030 74 121 2.0 9.0 0.00 0.00 0.00 48 1017.6
20260506101543 75 40 2.0 5.0 0.00 0.00 0.00 47 1017.7
20260506101028 75 50 1.0 6.0 0.00 0.00 0.00 43 1017.8
20260506100528 75 68 2.0 6.0 0.00 0.00 0.00 40 1017.7
20260506100034 76 61 1.0 7.0 0.00 0.00 0.00 38 1017.7
20260506095528 76 54 2.0 7.0 0.00 0.00 0.00 39 1017.7
20260506095032 76 185 2.0 5.0 0.00 0.00 0.00 38 1017.8
20260506094526 76 17 1.0 4.0 0.00 0.00 0.00 38 1017.8
20260506094027 76 344 2.0 5.0 0.00 0.00 0.00 37 1017.8
20260506093526 76 82 2.0 5.0 0.00 0.00 0.00 38 1017.9
20260506093033 75 190 2.0 10.0 0.00 0.00 0.00 39 1017.8
20260506092524 76 223 2.0 10.0 0.00 0.00 0.00 40 1017.9
20260506092025 75 5 1.0 5.0 0.00 0.00 0.00 41 1017.8
20260506091522 75 47 1.0 7.0 0.00 0.00 0.00 39 1017.8
20260506091024 75 200 3.0 7.0 0.00 0.00 0.00 41 1017.9
20260506090520 75 194 1.0 7.0 0.00 0.00 0.00 41 1017.9
20260506090020 74 9 2.0 5.0 0.00 0.00 0.00 41 1017.9
20260506085524 74 263 1.0 7.0 0.00 0.00 0.00 39 1017.8
20260506085019 75 259 1.0 7.0 0.00 0.00 0.00 40 1017.9
20260506084518 76 55 1.0 4.0 0.00 0.00 0.00 41 1017.9
20260506084018 75 280 1.0 7.0 0.00 0.00 0.00 39 1017.9
20260506083517 74 355 3.0 7.0 0.00 0.00 0.00 42 1017.8
20260506083017 73 100 1.0 4.0 0.00 0.00 0.00 43 1017.8
20260506082515 73 248 1.0 6.0 0.00 0.00 0.00 43 1017.8
20260506082017 74 151 1.0 6.0 0.00 0.00 0.00 43 1017.8
20260506081514 74 171 0.0 7.0 0.00 0.00 0.00 43 1017.8
20260506081014 73 246 1.0 7.0 0.00 0.00 0.00 44 1017.8
20260506080514 73 280 3.0 5.0 0.00 0.00 0.00 44 1017.8
20260506073506 70 17 0.0 5.0 0.00 0.00 0.00 47 1017.6
20260506073011 70 71 1.0 5.0 0.00 0.00 0.00 48 1017.6
20260506072507 70 63 2.0 3.0 0.00 0.00 0.00 48 1017.5
20260506072005 70 49 1.0 3.0 0.00 0.00 0.00 48 1017.5
20260506071503 70 32 0.0 4.0 0.00 0.00 0.00 47 1017.6
20260506071006 70 32 1.0 4.0 0.00 0.00 0.00 49 1017.5
20260506070503 70 51 2.0 5.0 0.00 0.00 0.00 49 1017.5
20260506062053 67 73 0.0 3.0 0.00 0.00 0.00 51 1017.6
20260506061553 67 74 1.0 3.0 0.00 0.00 0.00 51 1017.5
20260506061053 67 76 0.0 2.0 0.00 0.00 0.00 52 1017.6
20260506060551 67 109 0.0 2.0 0.00 0.00 0.00 51 1017.6
20260506051038 60 181 0.0 1.0 0.00 0.00 0.00 66 1017.3
20260506050537 60 182 0.0 1.0 0.00 0.00 0.00 68 1017.4
20260506045032 57 182 0.0 1.0 0.00 0.00 0.00 74 1017.2
20260506044604 56 181 0.0 1.0 0.00 0.00 0.00 74 1017.2
20260506044031 56 360 0.0 1.0 0.00 0.00 0.00 72 1017.3
20260506043529 56 182 0.0 1.0 0.00 0.00 0.00 72 1017.2
20260506043028 56 182 0.0 1.0 0.00 0.00 0.00 72 1017.2
20260506042527 55 181 0.0 1.0 0.00 0.00 0.00 73 1017.2
20260506042026 56 181 0.0 1.0 0.00 0.00 0.00 72 1017.1
20260506041526 56 182 0.0 2.0 0.00 0.00 0.00 70 1017.0
20260506041030 56 181 0.0 2.0 0.00 0.00 0.00 70 1017.0
20260506040528 56 181 0.0 0.0 0.00 0.00 0.00 71 1017.0
20260506040028 56 181 0.0 3.0 0.00 0.00 0.00 71 1016.9
20260506035528 55 181 0.0 3.0 0.00 0.00 0.00 72 1016.8
20260506035024 55 182 0.0 4.0 0.00 0.00 0.00 71 1016.7
20260506034544 55 192 1.0 4.0 0.00 0.00 0.00 70 1016.6
20260506034022 55 217 0.0 0.0 0.00 0.00 0.00 70 1016.5
20260506033522 55 217 0.0 0.0 0.00 0.00 0.00 69 1016.7
20260506033021 55 215 0.0 0.0 0.00 0.00 0.00 70 1016.6
20260506032520 55 216 0.0 0.0 0.00 0.00 0.00 71 1016.6
20260506032024 55 216 0.0 0.0 0.00 0.00 0.00 71 1016.5
20260506031521 55 216 0.0 0.0 0.00 0.00 0.00 71 1016.6
20260506031020 55 215 0.0 0.0 0.00 0.00 0.00 72 1016.6
20260506030522 55 216 0.0 1.0 0.00 0.00 0.00 72 1016.6
20260506030020 55 216 0.0 2.0 0.00 0.00 0.00 71 1016.5
20260506025521 55 216 0.0 2.0 0.00 0.00 0.00 71 1016.6
20260506025019 55 215 0.0 2.0 0.00 0.00 0.00 71 1016.5
20260506024519 55 215 0.0 2.0 0.00 0.00 0.00 71 1016.5
20260506024019 55 215 0.0 2.0 0.00 0.00 0.00 71 1016.5
20260506023519 56 215 0.0 2.0 0.00 0.00 0.00 70 1016.5
20260506023018 56 215 0.0 3.0 0.00 0.00 0.00 70 1016.5
20260506022518 56 215 0.0 3.0 0.00 0.00 0.00 70 1016.5
20260506022018 55 226 1.0 4.0 0.00 0.00 0.00 70 1016.5
20260506021518 56 248 0.0 4.0 0.00 0.00 0.00 70 1016.6
20260506021018 56 243 1.0 3.0 0.00 0.00 0.00 71 1016.6
20260506020518 55 216 0.0 3.0 0.00 0.00 0.00 72 1016.6
20260506020017 55 228 0.0 2.0 0.00 0.00 0.00 72 1016.6
20260506015519 55 223 1.0 2.0 0.00 0.00 0.00 72 1016.7
20260506015016 55 224 0.0 3.0 0.00 0.00 0.00 71 1016.7
20260506014517 55 223 1.0 3.0 0.00 0.00 0.00 71 1016.7
20260506014014 55 236 0.0 1.0 0.00 0.00 0.00 72 1016.7
20260506013515 55 236 0.0 1.0 0.00 0.00 0.00 71 1016.8
20260506013015 55 236 0.0 3.0 0.00 0.00 0.00 72 1016.8
20260506012515 55 236 0.0 3.0 0.00 0.00 0.00 72 1016.8
20260506012015 55 111 0.0 2.0 0.00 0.00 0.00 72 1016.7
20260506011517 55 105 0.0 1.0 0.00 0.00 0.00 73 1016.8
20260506011013 55 77 0.0 1.0 0.00 0.00 0.00 72 1016.8
20260506010513 55 76 0.0 1.0 0.00 0.00 0.00 73 1016.9
20260506010014 55 76 0.0 1.0 0.00 0.00 0.00 72 1016.9
20260506005513 55 78 0.0 1.0 0.00 0.00 0.00 72 1016.9
20260506005013 55 69 0.0 1.0 0.00 0.00 0.00 72 1016.9
20260506004528 55 67 0.0 0.0 0.00 0.00 0.00 72 1016.9
20260506004012 55 66 0.0 1.0 0.00 0.00 0.00 72 1016.9
20260506003512 54 69 0.0 1.0 0.00 0.00 0.00 72 1016.9
20260506003013 54 67 0.0 1.0 0.00 0.00 0.00 72 1016.9
20260506002511 54 360 0.0 0.0 0.00 0.00 0.00 71 1016.9
20260506002012 55 360 0.0 1.0 0.00 0.00 0.00 71 1016.8
20260506001510 55 360 0.0 1.0 0.00 0.00 0.00 70 1016.8
20260506001010 55 70 0.0 1.0 0.00 0.00 0.00 71 1016.8
20260506000510 55 360 0.0 1.0 0.00 0.00 0.00 70 1016.8
20260506000008 55 360 0.0 1.0 0.00 0.00 0.00 69 1016.9
20260505235507 55 360 0.0 2.0 0.00 0.00 0.00 69 1016.9
20260505235008 55 360 0.0 2.0 0.00 0.00 0.00 69 1016.9
20260505234509 55 360 0.0 0.0 0.00 0.00 0.00 69 1016.9
20260505234009 55 360 0.0 0.0 0.00 0.00 0.00 68 1016.9
20260505233510 55 360 0.0 0.0 0.00 0.00 0.00 69 1016.9
20260505233008 55 360 0.0 0.0 0.00 0.00 0.00 68 1017.0
20260505232505 55 55 0.0 0.0 0.00 0.00 0.00 68 1017.0
20260505232004 55 55 0.0 0.0 0.00 0.00 0.00 68 1017.0
20260505231509 55 36 0.0 0.0 0.00 0.00 0.00 68 1017.1
20260505231003 55 26 0.0 0.0 0.00 0.00 0.00 68 1017.2
20260505230503 56 360 0.0 0.0 0.00 0.00 0.00 67 1017.2
20260505230007 55 28 0.0 0.0 0.00 0.00 0.00 68 1017.2
20260505225503 55 32 0.0 0.0 0.00 0.00 0.00 68 1017.1
20260505225004 55 360 0.0 0.0 0.00 0.00 0.00 68 1017.2
20260505224502 55 360 0.0 0.0 0.00 0.00 0.00 68 1017.2
20260505224000 55 360 0.0 0.0 0.00 0.00 0.00 67 1017.2
20260505223600 56 360 0.0 0.0 0.00 0.00 0.00 67 1017.3
20260505223059 56 24 0.0 0.0 0.00 0.00 0.00 66 1017.2
20260505222600 56 24 0.0 0.0 0.00 0.00 0.00 66 1017.3
20260505222059 56 24 0.0 0.0 0.00 0.00 0.00 66 1017.3
20260505221603 56 24 0.0 0.0 0.00 0.00 0.00 66 1017.3
20260505221058 56 24 0.0 0.0 0.00 0.00 0.00 66 1017.3
20260505220558 56 24 0.0 0.0 0.00 0.00 0.00 66 1017.3
20260505220105 56 24 0.0 0.0 0.00 0.00 0.00 66 1017.4
20260505215557 56 24 0.0 0.0 0.00 0.00 0.00 65 1017.4
20260505215056 56 24 0.0 0.0 0.00 0.00 0.00 65 1017.4
20260505214604 56 24 0.0 0.0 0.00 0.00 0.00 65 1017.4
20260505214057 56 24 0.0 0.0 0.00 0.00 0.00 65 1017.4
20260505213555 57 23 0.0 0.0 0.00 0.00 0.00 65 1017.4
20260505213102 56 23 0.0 0.0 0.00 0.00 0.00 66 1017.4
20260505212554 56 22 0.0 0.0 0.00 0.00 0.00 66 1017.4
20260505212053 57 22 0.0 0.0 0.00 0.00 0.00 66 1017.4
20260505211601 57 22 0.0 0.0 0.00 0.00 0.00 66 1017.5
20260505211055 57 22 0.0 0.0 0.00 0.00 0.00 67 1017.5
20260505210552 57 22 0.0 0.0 0.00 0.00 0.00 67 1017.5
20260505210051 57 11 0.0 0.0 0.00 0.00 0.00 66 1017.6
20260505205553 57 11 0.0 0.0 0.00 0.00 0.00 67 1017.5
20260505205051 57 11 0.0 1.0 0.00 0.00 0.00 67 1017.5
20260505204550 57 11 0.0 1.0 0.00 0.00 0.00 68 1017.6
20260505204050 57 11 0.0 0.0 0.00 0.00 0.00 67 1017.6
20260505203549 57 11 0.0 1.0 0.00 0.00 0.00 68 1017.6
20260505203050 57 11 0.0 2.0 0.00 0.00 0.00 69 1017.6
20260505202550 57 11 0.0 2.0 0.00 0.00 0.00 69 1017.6
20260505202049 57 9 0.0 1.0 0.00 0.00 0.00 71 1017.6
20260505201549 57 9 0.0 1.0 0.00 0.00 0.00 73 1017.7
20260505201050 57 10 0.0 1.0 0.00 0.00 0.00 74 1017.7
20260505200549 57 5 0.0 0.0 0.00 0.00 0.00 74 1017.7
20260505200049 57 9 0.0 0.0 0.00 0.00 0.00 73 1017.7
20260505195549 57 9 0.0 0.0 0.00 0.00 0.00 72 1017.7
20260505195048 58 9 0.0 0.0 0.00 0.00 0.00 72 1017.7
20260505194549 58 5 0.0 1.0 0.00 0.00 0.00 71 1017.7
20260505194049 57 5 0.0 1.0 0.00 0.00 0.00 73 1017.6
20260505193548 57 9 0.0 0.0 0.00 0.00 0.00 73 1017.6
20260505193049 57 9 0.0 0.0 0.00 0.00 0.00 73 1017.7
20260505192547 57 9 0.0 0.0 0.00 0.00 0.00 72 1017.7
20260505192048 57 9 0.0 0.0 0.00 0.00 0.00 72 1017.7
20260505191555 57 9 0.0 0.0 0.00 0.00 0.00 71 1017.7
20260505191048 57 9 0.0 0.0 0.00 0.00 0.00 71 1017.7